Change the Weather History Date:

Tuesday, February 21, 2012

  Actual Average Record
Temperature  
Mean Temperature 38 °F 39 °F  
Max Temperature 53 °F 48 °F 75 °F (1943)
Min Temperature 22 °F 29 °F -4 °F (2015)
Degree Days  
Heating Degree Days 27 26  
Month to date heating degree days 514 587  
Since 1 July heating degree days 2414 3128  
Cooling Degree Days 0 0  
Month to date cooling degree days 0 0  
Year to date cooling degree days 0 0  
Moisture  
Dew Point 32 °F    
Average Humidity 65    
Maximum Humidity 89    
Minimum Humidity 41    
Precipitation  
Precipitation 0.00 in 0.12 in 1.09 in (2005)
Month to date precipitation 1.26 2.50  
Year to date precipitation 3.35 6.11  
Snow  
Snow 0.00 in 0.10 in 7.00 in (1929)
Month to date snowfall T 2.7  
Since 1 July snowfall T 7.7  
Snow Depth 0.00 in    
Sea Level Pressure  
Sea Level Pressure 30.18 in    
Wind  
Wind Speed 7 mph (South)    
Max Wind Speed 20 mph    
Max Gust Speed 26 mph    
Visibility 10 miles    
Events      
T = Trace of Precipitation, MM = Missing Value Source: NWS Daily Summary

Daily Weather History Graph

Daily Weather History Graph

Search for Another Location

Airport or City:

Trip Planner

Search our weather history database for the weather conditions in past years. The results will help you decide how hot, cold, wet, or windy it might be!

Date:

Astronomy

Feb. 21, 2012 Rise Set
Actual Time 6:45 AM EST 5:46 PM EST
Civil Twilight 6:18 AM EST 6:13 PM EST
Nautical Twilight 5:48 AM EST 6:43 PM EST
Astronomical Twilight 5:17 AM EST 7:14 PM EST
Moon 6:13 AM EST (2/21) 5:49 PM EST (2/21)
Length of Visible Light 11h 54m
Length of Day
11h 00m
Waning Crescent, 0% of the Moon is Illuminated
Feb 21
Waning Crescent
Feb 21
New
Feb 29
First Quarter
Mar 8
Full
Mar 14
Last Quarter

Hourly Weather History & Observations

Time (EST) Temp. Windchill Dew Point Humidity Pressure Visibility Wind Dir Wind Speed Gust Speed Precip Events Conditions
12:54 AM 28.0 °F - 24.1 °F 85% 30.36 in 10.0 mi Calm Calm - N/A   Clear
1:54 AM 27.0 °F - 23.0 °F 85% 30.35 in 10.0 mi Calm Calm - N/A   Clear
2:54 AM 26.1 °F - 21.9 °F 84% 30.35 in 10.0 mi Calm Calm - N/A   Clear
3:54 AM 26.1 °F - 21.9 °F 84% 30.35 in 8.0 mi Calm Calm - N/A   Clear
4:54 AM 24.1 °F - 19.9 °F 84% 30.34 in 10.0 mi Calm Calm - N/A   Clear
5:54 AM 24.1 °F - 19.9 °F 84% 30.35 in 10.0 mi Calm Calm - N/A   Clear
6:54 AM 21.9 °F - 18.0 °F 85% 30.33 in 10.0 mi Calm Calm - N/A   Clear
7:54 AM 28.0 °F 21.7 °F 23.0 °F 81% 30.31 in 10.0 mi East 5.8 mph - N/A   Clear
8:54 AM 37.9 °F 33.5 °F 28.9 °F 70% 30.34 in 10.0 mi SSE 5.8 mph - N/A   Clear
9:54 AM 45.0 °F 41.2 °F 28.9 °F 53% 30.34 in 10.0 mi South 6.9 mph - N/A   Clear
10:54 AM 48.9 °F - 30.0 °F 48% 30.31 in 10.0 mi SSE 8.1 mph - N/A   Clear
11:54 AM 53.6 °F - 30.2 °F 41% 30.24 in 10.0 mi South 13.8 mph 19.6 mph N/A   Clear
12:54 PM 52.0 °F - 33.1 °F 49% 30.21 in 10.0 mi South 13.8 mph 19.6 mph N/A   Overcast
1:54 PM 50.0 °F - 34.0 °F 54% 30.15 in 10.0 mi South 15.0 mph - N/A   Overcast
2:54 PM 50.0 °F - 35.6 °F 58% 30.10 in 10.0 mi South 10.4 mph 24.2 mph N/A   Overcast
3:54 PM 52.0 °F - 37.0 °F 57% 30.06 in 10.0 mi South 16.1 mph 20.7 mph N/A   Mostly Cloudy
4:54 PM 51.1 °F - 37.9 °F 61% 30.03 in 10.0 mi South 16.1 mph 19.6 mph N/A   Clear
5:54 PM 50.0 °F - 39.0 °F 66% 30.01 in 10.0 mi SSW 12.7 mph - N/A   Overcast
6:54 PM 48.0 °F - 39.0 °F 71% 29.99 in 10.0 mi South 8.1 mph - N/A   Mostly Cloudy
7:54 PM 46.4 °F 43.5 °F 41.0 °F 81% 29.99 in 10.0 mi SSW 5.8 mph - N/A   Mostly Cloudy
8:54 PM 48.0 °F - 42.1 °F 80% 29.99 in 10.0 mi SSW 5.8 mph - N/A   Scattered Clouds
9:54 PM 45.0 °F - 41.0 °F 86% 29.98 in 10.0 mi Calm Calm - N/A   Mostly Cloudy
10:54 PM 48.0 °F - 43.0 °F 83% 29.96 in 10.0 mi SSW 6.9 mph - N/A   Clear
11:54 PM 48.9 °F - 44.1 °F 83% 29.93 in 10.0 mi South 6.9 mph - N/A   Mostly Cloudy